Tracking 35274 objects as of 12-Sep-2026
HD Live streaming from Space Station
objects crossing your sky now

FLOCK 4V 12


FLOCK 4V 12 is no longer on orbit
FLOCK 4V 12 is classified as:


NORAD ID: 46283
Int'l Code: 2020-061M
Launch date: September 3, 2020
Source: United States (US)
Launch site: FRENCH GUIANA (FRGUI)
Decay date: 2024-02-24
Your satellite tracking list
Your tracking list is empty




NASA's NSSDC Master Catalog

Two Line Element Set (TLE):
1 46283U 20061M   24054.16920864  .12564106  24932-5  10758-2 0  9996
2 46283  97.3336 134.5339 0012615 280.2757  79.7120 16.39266251192740
Source of the keplerian elements: AFSPC